Bloomington, IN

11:49 PM EDT on October 23, 2019 (GMT -0400)
Monroe County

Weather History for KBMG - September, 2019

Change the Weather History Date:

Tuesday, September 17, 2019

  Actual Average Record
Temperature  
Mean Temperature 74 °F 65 °F  
Max Temperature 84 °F 78 °F 90 °F (2017)
Min Temperature 63 °F 53 °F 41 °F (1999)
Degree Days  
Heating Degree Days 0 2  
Month to date heating degree days 0 18  
Since 1 July heating degree days 0 25  
Cooling Degree Days 9 3  
Month to date cooling degree days 132 74  
Year to date cooling degree days 1104 891  
Growing Degree Days 24 (Base 50)    
Moisture  
Dew Point 63 °F    
Average Humidity 74    
Maximum Humidity 100    
Minimum Humidity 49    
Precipitation  
Precipitation 0.00 in 0.10 in 1.13 in (2012)
Month to date precipitation 0.87 1.86  
Year to date precipitation 37.09 35.05  
Sea Level Pressure  
Sea Level Pressure 30.08 in    
Wind  
Wind Speed 4 mph ()    
Max Wind Speed 14 mph    
Max Gust Speed 20 mph    
Visibility 8.5 miles    
Events      
T = Trace of Precipitation, MM = Missing Value Source: Averaged Metar Reports

Daily Weather History Graph

Daily Weather History Graph

Search for Another Location

Airport or City:

Astronomy

Sep. 17, 2019 Rise Set
Actual Time 7:29 AM EDT 7:51 PM EDT
Civil Twilight 7:02 AM EDT 8:18 PM EDT
Nautical Twilight 6:31 AM EDT 8:50 PM EDT
Astronomical Twilight 5:58 AM EDT 9:22 PM EDT
Moon 9:56 PM EDT (9/17) 10:32 AM EDT (9/17)
Length of Visible Light 13h 16m
Length of Day
12h 22m
Waning Gibbous, 89% of the Moon is Illuminated
Sep 17
Waning Gibbous
Sep 21
Last Quarter
Sep 28
New
Oct 5
First Quarter
Oct 13
Full

Hourly Weather History & Observations

Time (EDT) Temp. Heat Index Dew Point Humidity Pressure Visibility Wind Dir Wind Speed Gust Speed Precip Events Conditions
4:53 AM 64.9 °F - 63.0 °F 93% 30.06 in 7.0 mi Calm Calm - N/A   Clear
5:15 AM 63.0 °F - 61.0 °F 93% 30.08 in 1.8 mi Calm Calm - N/A   Clear
5:41 AM 64.0 °F - 62.1 °F 93% 30.09 in 5.0 mi North 3.5 mph - N/A   Clear
5:53 AM 63.0 °F - 62.1 °F 97% 30.07 in 6.0 mi Calm Calm - N/A   Scattered Clouds
6:53 AM 64.0 °F - 62.1 °F 93% 30.08 in 5.0 mi NNW 3.5 mph - N/A   Scattered Clouds
7:53 AM 66.0 °F - 63.0 °F 90% 30.11 in 6.0 mi North 3.5 mph - N/A   Partly Cloudy
8:53 AM 70.0 °F - 64.9 °F 84% 30.12 in 10.0 mi ENE 4.6 mph - N/A   Partly Cloudy
9:53 AM 73.0 °F - 64.0 °F 73% 30.12 in 10.0 mi East 6.9 mph - N/A   Clear
10:53 AM 77.0 °F - 63.0 °F 62% 30.12 in 10.0 mi ENE 8.1 mph - N/A   Clear
12:53 PM 80.1 °F 81.5 °F 63.0 °F 56% 30.11 in 10.0 mi NNE 6.9 mph - N/A   Partly Cloudy
1:53 PM 82.9 °F 83.7 °F 62.1 °F 49% 30.10 in 10.0 mi NE 10.4 mph 18.4 mph N/A   Partly Cloudy
2:53 PM 82.9 °F 84.0 °F 63.0 °F 51% 30.08 in 10.0 mi NE 6.9 mph 19.6 mph N/A   Scattered Clouds
3:53 PM 82.0 °F 83.0 °F 62.1 °F 51% 30.07 in 10.0 mi East 8.1 mph - N/A   Partly Cloudy
6:53 PM 79.0 °F - 62.1 °F 56% 30.05 in 10.0 mi NE 9.2 mph - N/A   Clear
7:53 PM 75.0 °F - 63.0 °F 66% 30.06 in 10.0 mi NE 5.8 mph - N/A   Clear
8:53 PM 71.1 °F - 63.0 °F 75% 30.06 in 10.0 mi NNE 5.8 mph - N/A   Clear
9:53 PM 72.0 °F - 63.0 °F 73% 30.07 in 10.0 mi NE 8.1 mph - N/A   Clear
10:53 PM 71.1 °F - 62.1 °F 73% 30.07 in 10.0 mi NE 8.1 mph - N/A   Clear
11:53 PM 70.0 °F - 61.0 °F 73% 30.07 in 10.0 mi NE 5.8 mph - N/A   Clear